When you browse on this site, cookies collect data to enhance your experience and personalize the content and advertising you see.
Visit our Privacy Policy to learn more. By continuing to use the site, you agree to this use of cookies and data.
  • In Germany
  • List of Countries
  • For 7 days
  • Water Temperature
  • Weather Map
  • Weather Widgets
  • user-avatar
    Login

    Hourly Weather Maidstone

    Today, 15 September, Sunday

    Time Temperature Precipitation Wind Pressure Humidity
    00:00 +13°C° 0 mm 1 mps 768 mmHg 65%
    01:00 +13°C° 0 mm 2 mps 767 mmHg 65%
    02:00 +13°C° 0 mm 2 mps 767 mmHg 65%
    03:00 +13°C° 0 mm 2 mps 767 mmHg 64%
    04:00 +13°C° 0 mm 2 mps 766 mmHg 65%
    05:00 +12°C° 0 mm 2 mps 766 mmHg 66%
    06:00 +12°C° 0 mm 2 mps 766 mmHg 67%
    07:00 +15°C° 0 mm 2 mps 766 mmHg 61%
    08:00 +17°C° 0 mm 2 mps 766 mmHg 55%
    09:00 +19°C° 0 mm 2 mps 766 mmHg 49%
    10:00 +20°C° 0 mm 2 mps 766 mmHg 47%
    11:00 +23°C° 0 mm 2 mps 766 mmHg 45%
    12:00 +24°C° 0 mm 2 mps 765 mmHg 43%
    13:00 +25°C° 0 mm 2 mps 765 mmHg 44%
    14:00 +25°C° 0 mm 2 mps 765 mmHg 45%
    15:00 +26°C° 0 mm 3 mps 765 mmHg 45%
    16:00 +24°C° 0 mm 2 mps 764 mmHg 53%
    17:00 +23°C° 0 mm 2 mps 764 mmHg 60%
    18:00 +20°C° 0 mm 2 mps 764 mmHg 67%
    19:00 +19°C° 0 mm 2 mps 764 mmHg 72%
    20:00 +18°C° 0 mm 2 mps 764 mmHg 76%
    21:00 +18°C° 0 mm 2 mps 764 mmHg 81%
    22:00 +18°C° 0 mm 2 mps 764 mmHg 83%
    23:00 +18°C° 0 mm 2 mps 764 mmHg 86%

    Tomorrow, 16 September, Monday

    Time Temperature Precipitation Wind Pressure Humidity
    00:00 +17°C° 0 mm 2 mps 764 mmHg 88%
    01:00 +17°C° 0 mm 2 mps 763 mmHg 89%
    02:00 +17°C° 0 mm 2 mps 763 mmHg 90%
    03:00 +18°C° 0 mm 1 mps 763 mmHg 90%
    04:00 +17°C° 0 mm 2 mps 763 mmHg 91%
    05:00 +16°C° 0 mm 2 mps 762 mmHg 92%
    06:00 +16°C° 0 mm 2 mps 762 mmHg 92%
    07:00 +17°C° 0 mm 2 mps 763 mmHg 89%
    08:00 +17°C° 0 mm 3 mps 763 mmHg 85%
    09:00 +18°C° 0 mm 3 mps 763 mmHg 82%
    10:00 +19°C° 0 mm 3 mps 763 mmHg 80%
    11:00 +19°C° 0 mm 3 mps 763 mmHg 77%
    12:00 +20°C° 0 mm 3 mps 763 mmHg 75%
    13:00 +20°C° 0 mm 3 mps 763 mmHg 75%
    14:00 +19°C° 0 mm 3 mps 764 mmHg 76%
    15:00 +19°C° 0 mm 2 mps 764 mmHg 76%
    16:00 +18°C° 0 mm 3 mps 764 mmHg 79%
    17:00 +18°C° 0 mm 3 mps 764 mmHg 81%
    18:00 +17°C° 0 mm 3 mps 764 mmHg 84%
    19:00 +17°C° 0 mm 3 mps 764 mmHg 82%
    20:00 +16°C° 0 mm 3 mps 765 mmHg 80%
    21:00 +16°C° 0 mm 3 mps 765 mmHg 78%
    22:00 +15°C° 0 mm 2 mps 765 mmHg 80%
    23:00 +14°C° 0 mm 2 mps 765 mmHg 82%

    Day after tomorrow, 17 September, Tuesday

    Time Temperature Precipitation Wind Pressure Humidity
    00:00 +14°C° 0 mm 2 mps 765 mmHg 84%
    01:00 +13°C° 0 mm 2 mps 766 mmHg 84%
    02:00 +12°C° 0 mm 2 mps 766 mmHg 85%
    03:00 +12°C° 0 mm 2 mps 766 mmHg 85%
    04:00 +10°C° 0 mm 2 mps 766 mmHg 84%
    05:00 +10°C° 0 mm 2 mps 766 mmHg 83%
    06:00 +10°C° 0 mm 2 mps 766 mmHg 81%
    07:00 +11°C° 0 mm 3 mps 766 mmHg 73%
    08:00 +13°C° 0 mm 3 mps 767 mmHg 66%
    09:00 +16°C° 0 mm 3 mps 767 mmHg 58%
    10:00 +16°C° 0 mm 3 mps 767 mmHg 53%
    11:00 +17°C° 0 mm 4 mps 767 mmHg 48%
    12:00 +18°C° 0 mm 4 mps 767 mmHg 44%
    13:00 +19°C° 0 mm 4 mps 767 mmHg 43%
    14:00 +19°C° 0 mm 4 mps 766 mmHg 42%
    15:00 +19°C° 0 mm 4 mps 766 mmHg 42%
    16:00 +17°C° 0 mm 3 mps 766 mmHg 48%
    17:00 +16°C° 0 mm 3 mps 766 mmHg 54%
    18:00 +14°C° 0 mm 3 mps 766 mmHg 60%
    19:00 +13°C° 0 mm 3 mps 767 mmHg 66%
    20:00 +12°C° 0 mm 3 mps 767 mmHg 71%
    21:00 +11°C° 0 mm 3 mps 768 mmHg 76%
    22:00 +10°C° 0 mm 3 mps 768 mmHg 76%
    23:00 +10°C° 0 mm 2 mps 768 mmHg 76%

    18 September, Wednesday

    Time Temperature Precipitation Wind Pressure Humidity
    00:00 +10°C° 0 mm 2 mps 768 mmHg 75%
    01:00 +9°C° 0 mm 2 mps 768 mmHg 74%
    02:00 +9°C° 0 mm 2 mps 768 mmHg 73%
    03:00 +9°C° 0 mm 2 mps 768 mmHg 72%
    04:00 +9°C° 0 mm 2 mps 768 mmHg 73%
    05:00 +9°C° 0 mm 2 mps 768 mmHg 74%
    06:00 +9°C° 0 mm 2 mps 768 mmHg 75%
    07:00 +12°C° 0 mm 2 mps 768 mmHg 69%
    08:00 +13°C° 0 mm 2 mps 768 mmHg 63%
    09:00 +15°C° 0 mm 2 mps 769 mmHg 56%
    10:00 +16°C° 0 mm 2 mps 768 mmHg 54%
    11:00 +16°C° 0 mm 2 mps 768 mmHg 52%
    12:00 +17°C° 0 mm 2 mps 768 mmHg 51%
    13:00 +17°C° 0 mm 2 mps 768 mmHg 50%
    14:00 +18°C° 0 mm 2 mps 768 mmHg 50%
    15:00 +18°C° 0 mm 2 mps 768 mmHg 50%
    16:00 +17°C° 0 mm 2 mps 768 mmHg 53%
    17:00 +16°C° 0 mm 2 mps 768 mmHg 57%
    18:00 +15°C° 0 mm 2 mps 768 mmHg 61%
    19:00 +15°C° 0 mm 2 mps 768 mmHg 65%
    20:00 +14°C° 0 mm 2 mps 769 mmHg 70%
    21:00 +14°C° 0 mm 2 mps 769 mmHg 74%
    22:00 +14°C° 0 mm 2 mps 769 mmHg 75%
    23:00 +14°C° 0 mm 2 mps 769 mmHg 76%

    19 September, Thursday

    Time Temperature Precipitation Wind Pressure Humidity
    00:00 +14°C° 0 mm 2 mps 769 mmHg 77%
    01:00 +12°C° 0 mm 3 mps 769 mmHg 81%
    02:00 +12°C° 0 mm 3 mps 770 mmHg 85%
    03:00 +11°C° 0 mm 3 mps 770 mmHg 89%
    04:00 +11°C° 0 mm 3 mps 770 mmHg 87%
    05:00 +11°C° 0 mm 4 mps 770 mmHg 85%
    06:00 +11°C° 0 mm 4 mps 770 mmHg 83%
    07:00 +12°C° 0 mm 4 mps 771 mmHg 75%
    08:00 +13°C° 0 mm 5 mps 771 mmHg 66%
    09:00 +14°C° 0 mm 5 mps 772 mmHg 58%
    10:00 +15°C° 0 mm 5 mps 772 mmHg 55%
    11:00 +16°C° 0 mm 5 mps 772 mmHg 51%
    12:00 +16°C° 0 mm 5 mps 772 mmHg 47%
    13:00 +16°C° 0 mm 5 mps 772 mmHg 48%
    14:00 +16°C° 0 mm 5 mps 772 mmHg 49%
    15:00 +16°C° 0 mm 5 mps 772 mmHg 50%
    16:00 +15°C° 0 mm 5 mps 772 mmHg 55%
    17:00 +13°C° 0 mm 4 mps 772 mmHg 61%
    18:00 +12°C° 0 mm 4 mps 772 mmHg 66%
    19:00 +11°C° 0 mm 3 mps 772 mmHg 70%
    20:00 +11°C° 0 mm 3 mps 773 mmHg 74%
    21:00 +10°C° 0 mm 3 mps 773 mmHg 78%
    22:00 +10°C° 0 mm 3 mps 773 mmHg 79%
    23:00 +9°C° 0 mm 2 mps 773 mmHg 81%

    20 September, Friday

    Time Temperature Precipitation Wind Pressure Humidity
    00:00 +9°C° 0 mm 2 mps 773 mmHg 82%
    01:00 +9°C° 0 mm 2 mps 773 mmHg 82%
    02:00 +9°C° 0 mm 2 mps 773 mmHg 81%
    03:00 +10°C° 0 mm 1 mps 772 mmHg 81%
    04:00 +10°C° 0 mm 1 mps 772 mmHg 82%
    05:00 +10°C° 0 mm 1 mps 772 mmHg 83%
    06:00 +10°C° 0 mm 1 mps 772 mmHg 84%
    07:00 +12°C° 0 mm 2 mps 772 mmHg 76%
    08:00 +14°C° 0 mm 2 mps 772 mmHg 68%
    09:00 +14°C° 0 mm 3 mps 772 mmHg 60%
    10:00 +16°C° 0 mm 3 mps 771 mmHg 56%
    11:00 +17°C° 0 mm 3 mps 771 mmHg 52%
    12:00 +18°C° 0 mm 4 mps 770 mmHg 48%
    13:00 +18°C° 0 mm 4 mps 770 mmHg 47%
    14:00 +18°C° 0 mm 4 mps 769 mmHg 47%
    15:00 +18°C° 0 mm 4 mps 768 mmHg 46%
    16:00 +17°C° 0 mm 3 mps 768 mmHg 52%
    17:00 +14°C° 0 mm 3 mps 767 mmHg 59%
    18:00 +13°C° 0 mm 3 mps 767 mmHg 65%
    19:00 +12°C° 0 mm 3 mps 767 mmHg 69%
    20:00 +11°C° 0 mm 3 mps 766 mmHg 74%
    21:00 +11°C° 0 mm 3 mps 766 mmHg 79%
    22:00 +11°C° 0 mm 3 mps 765 mmHg 76%
    23:00 +11°C° 0 mm 3 mps 765 mmHg 73%
    Show more